TimeEST,TemperatureF,Dew PointF,Humidity,Sea Level PressureIn,VisibilityMPH,Wind Direction,Wind SpeedMPH,Gust SpeedMPH,PrecipitationIn,Events,Conditions,WindDirDegrees,DateUTC
12:05 AM,8.1,3.9,83,30.08,6.0,WNW,3.5,-,N/A,,Partly Cloudy,300,2014-02-19 05:05:00
12:53 AM,7.0,3.0,84,30.12,5.0,Calm,Calm,-,N/A,,Clear,0,2014-02-19 05:53:00
1:53 AM,10.9,6.1,81,30.13,6.0,Calm,Calm,-,N/A,,Haze,0,2014-02-19 06:53:00
2:53 AM,10.0,6.1,84,30.11,5.0,Calm,Calm,-,N/A,,Clear,0,2014-02-19 07:53:00
3:53 AM,7.0,3.9,87,30.09,5.0,Calm,Calm,-,N/A,,Clear,0,2014-02-19 08:53:00
4:53 AM,9.0,3.9,80,30.08,6.0,Calm,Calm,-,N/A,,Haze,0,2014-02-19 09:53:00
5:53 AM,7.0,3.0,84,30.06,6.0,Calm,Calm,-,N/A,,Clear,0,2014-02-19 10:53:00
6:53 AM,10.0,6.1,84,30.03,4.0,Calm,Calm,-,N/A,,Clear,0,2014-02-19 11:53:00
7:53 AM,12.9,9.0,84,30.02,4.0,NNW,3.5,-,N/A,,Clear,330,2014-02-19 12:53:00
8:53 AM,19.0,18.0,96,30.03,4.0,Calm,Calm,-,N/A,,Clear,0,2014-02-19 13:53:00
9:53 AM,21.9,21.9,100,29.95,4.0,Calm,Calm,-,N/A,,Clear,0,2014-02-19 14:53:00
10:53 AM,28.9,21.9,75,29.94,6.0,NNW,4.6,-,N/A,,Haze,340,2014-02-19 15:53:00
11:15 AM,30.0,23.0,75,29.91,6.0,NW,4.6,-,N/A,,Haze,320,2014-02-19 16:15:00
11:53 AM,32.0,24.1,73,29.90,6.0,Calm,Calm,-,N/A,,Haze,0,2014-02-19 16:53:00
12:32 PM,30.9,26.1,82,29.85,2.5,NE,5.8,-,0.00,,Overcast,50,2014-02-19 17:32:00
12:40 PM,32.0,26.1,79,29.83,3.0,North,3.5,-,0.00,,Overcast,350,2014-02-19 17:40:00
12:48 PM,30.2,26.6,86,29.82,2.0,NE,3.5,-,N/A,,Overcast,40,2014-02-19 17:48:00
12:53 PM,30.9,28.0,89,29.82,2.0,NW,4.6,-,N/A,,Overcast,310,2014-02-19 17:53:00
1:01 PM,30.9,27.0,85,29.80,1.8,North,5.8,-,N/A,Rain,Light Freezing Rain,350,2014-02-19 18:01:00
1:12 PM,32.0,28.0,85,29.79,1.5,North,6.9,-,N/A,Rain,Light Freezing Rain,350,2014-02-19 18:12:00
1:26 PM,30.9,28.9,92,29.80,1.8,WNW,8.1,-,N/A,Rain,Light Freezing Rain,300,2014-02-19 18:26:00
1:31 PM,32.0,28.9,88,29.79,1.8,Variable,3.5,-,N/A,Rain,Light Freezing Rain,0,2014-02-19 18:31:00
1:38 PM,32.0,28.9,88,29.79,1.2,NNW,5.8,-,N/A,Rain,Light Freezing Rain,330,2014-02-19 18:38:00
1:53 PM,32.0,30.0,92,29.77,1.0,Calm,Calm,-,N/A,Rain,Light Freezing Rain,0,2014-02-19 18:53:00
2:12 PM,32.0,30.0,92,29.74,0.8,NNW,3.5,-,N/A,Rain,Light Freezing Rain,330,2014-02-19 19:12:00
2:18 PM,32.0,30.0,92,29.74,1.0,NNW,6.9,-,N/A,Rain,Light Freezing Rain,330,2014-02-19 19:18:00
2:20 PM,32.0,30.0,92,29.73,1.0,North,5.8,-,N/A,,Overcast,350,2014-02-19 19:20:00
2:38 PM,33.1,30.9,92,29.72,1.2,NNW,4.6,-,N/A,,Overcast,340,2014-02-19 19:38:00
2:53 PM,33.1,30.9,92,29.73,1.5,North,3.5,-,N/A,Rain,Light Rain,350,2014-02-19 19:53:00
3:12 PM,33.1,30.9,92,29.71,1.8,NW,3.5,-,N/A,,Overcast,310,2014-02-19 20:12:00
3:53 PM,33.1,30.9,92,29.72,1.8,Calm,Calm,-,N/A,,Overcast,0,2014-02-19 20:53:00
4:23 PM,33.1,32.0,96,29.71,0.8,Calm,Calm,-,0.03,,Overcast,0,2014-02-19 21:23:00
4:33 PM,33.1,30.9,92,29.71,1.2,Calm,Calm,-,0.03,,Overcast,0,2014-02-19 21:33:00
4:53 PM,33.1,30.9,92,29.72,1.8,Calm,Calm,-,0.03,,Overcast,0,2014-02-19 21:53:00
5:40 PM,33.1,30.9,92,29.72,2.0,Calm,Calm,-,0.00,Rain,Light Rain,0,2014-02-19 22:40:00
5:53 PM,33.1,30.9,92,29.77,2.0,West,6.9,-,0.00,Rain,Light Rain,280,2014-02-19 22:53:00
6:53 PM,32.0,30.9,96,29.79,2.0,West,3.5,-,0.00,,Overcast,260,2014-02-19 23:53:00
7:07 PM,33.1,30.9,92,29.77,1.8,NE,3.5,-,0.00,Rain,Rain,50,2014-02-20 00:07:00
7:24 PM,33.1,30.9,92,29.78,1.2,Calm,Calm,-,N/A,,Overcast,0,2014-02-20 00:24:00
7:32 PM,33.1,30.9,92,29.78,1.8,Calm,Calm,-,N/A,Rain,Light Rain,0,2014-02-20 00:32:00
7:53 PM,33.1,30.9,92,29.79,1.8,Calm,Calm,-,N/A,Rain,Light Rain,0,2014-02-20 00:53:00
8:53 PM,32.0,30.9,96,29.82,1.2,Calm,Calm,-,N/A,,Overcast,0,2014-02-20 01:53:00
9:14 PM,32.0,30.9,96,29.82,1.2,Calm,Calm,-,N/A,,Overcast,0,2014-02-20 02:14:00
9:31 PM,32.0,30.9,96,29.83,0.8,Calm,Calm,-,N/A,,Overcast,0,2014-02-20 02:31:00
9:39 PM,32.0,30.0,92,29.83,1.0,Calm,Calm,-,N/A,,Overcast,0,2014-02-20 02:39:00
9:53 PM,32.0,30.0,92,29.85,1.0,Calm,Calm,-,N/A,,Overcast,0,2014-02-20 02:53:00
10:04 PM,32.0,30.0,92,29.85,0.8,Calm,Calm,-,N/A,,Overcast,0,2014-02-20 03:04:00
10:11 PM,32.0,30.0,92,29.85,1.0,South,3.5,-,N/A,,Overcast,180,2014-02-20 03:11:00
10:48 PM,33.8,30.2,87,29.88,3.0,West,5.8,-,N/A,,Scattered Clouds,280,2014-02-20 03:48:00
10:53 PM,35.1,32.0,89,29.89,4.0,West,5.8,-,N/A,,Partly Cloudy,280,2014-02-20 03:53:00
11:53 PM,35.1,32.0,89,29.92,6.0,NW,5.8,-,N/A,,Clear,310,2014-02-20 04:53:00